Retour au catalogue

FENGYUN 1C DEB

LostPO
NORAD 38806·DEBRIS·🇨🇳 China

Lancé May 10, 1999 depuis Taiyuan Satellite Launch Center

Loading…

Prochains Passages (prochaines 24 heures)

TLE

PériméSource: Space-Track

Époque: May 12, 2015, 05:37 UTC

1 38806U 99025EUW 15132.23433412 +.00002204 +00000-0 +15398-2 0  9990
2 38806 098.5611 298.2737 0140796 359.9035 001.2428 13.94834523234004

Suivez FENGYUN 1C DEB en temps réel avec AllMySat

Download on the App Store